Weather History for Golovin, AK

Change the Weather History Date:

Thursday, February 21, 2013

  Actual Average Record
Temperature  
Mean Temperature 0 °F -  
Max Temperature 6 °F - - ()
Min Temperature -7 °F - - ()
Degree Days  
Heating Degree Days 66    
Moisture  
Dew Point -18 °F    
Average Humidity 43    
Maximum Humidity 85    
Minimum Humidity 27    
Precipitation  
Precipitation 0.00 in - - ()
Sea Level Pressure  
Sea Level Pressure 29.50 in    
Wind  
Wind Speed 16 mph (NE)    
Max Wind Speed 25 mph    
Max Gust Speed 36 mph    
Visibility 10 miles    
Events      
T = Trace of Precipitation, MM = Missing Value Source: NWS Daily Summary

Daily Weather History Graph

Daily Weather History Graph

Search for Another Location

Airport:

Trip Planner

Search our weather history database for the weather conditions in past years. The results will help you decide how hot, cold, wet, or windy it might be!

Date:

Astronomy

Feb. 21, 2013 Rise Set
Actual Time 9:26 AM AKST 6:45 PM AKST
Civil Twilight 8:36 AM AKST 7:36 PM AKST
Nautical Twilight 7:40 AM AKST 8:32 PM AKST
Astronomical Twilight 6:44 AM AKST 9:28 PM AKST
Moon 2:09 PM AKST (2/21) 7:45 AM AKST (2/21)
Length of Visible Light 10h 59m
Length of Day
9h 18m
Waxing Gibbous, 85% of the Moon is Illuminated
Feb 21
Waxing Gibbous
Feb 25
Full
Mar 4
Last Quarter
Mar 11
New
Mar 19
First Quarter

Hourly Weather History & Observations

Time (AKST) Temp. Windchill Dew Point Humidity Pressure Visibility Wind Dir Wind Speed Gust Speed Precip Events Conditions
12:16 AM 6.8 °F -15.1 °F -11.2 °F 44% 29.50 in 10.0 mi ENE 25.3 mph 32.2 mph N/A   Clear
12:36 AM 5.0 °F -15.7 °F -14.8 °F 40% 29.50 in 10.0 mi ENE 20.7 mph 26.5 mph N/A   Clear
12:56 AM 5.0 °F -16.2 °F -16.6 °F 36% 29.50 in 10.0 mi ENE 21.9 mph 27.6 mph N/A   Clear
1:16 AM 5.0 °F -16.2 °F -18.4 °F 33% 29.50 in 10.0 mi ENE 21.9 mph 29.9 mph N/A   Clear
1:36 AM 5.0 °F -14.2 °F -13.0 °F 43% 29.51 in 10.0 mi NE 17.3 mph 25.3 mph N/A   Clear
1:56 AM 5.0 °F -11.6 °F -11.2 °F 47% 29.52 in 10.0 mi NE 12.7 mph 25.3 mph N/A   Clear
2:16 AM 3.2 °F -16.5 °F -11.2 °F 51% 29.52 in 10.0 mi ENE 17.3 mph 20.7 mph N/A   Clear
2:56 AM 3.2 °F -13.1 °F -11.2 °F 51% 29.52 in 10.0 mi NE 11.5 mph - N/A   Clear
3:16 AM 3.2 °F -13.1 °F -13.0 °F 47% 29.52 in 10.0 mi NE 11.5 mph 19.6 mph N/A   Clear
3:36 AM 1.4 °F -18.8 °F -11.2 °F 56% 29.50 in 10.0 mi NE 17.3 mph 21.9 mph N/A   Clear
3:56 AM 1.4 °F -17.6 °F -9.4 °F 61% 29.51 in 10.0 mi ENE 15.0 mph 23.0 mph N/A   Clear
4:16 AM 1.4 °F -18.8 °F -16.6 °F 43% 29.50 in 10.0 mi ENE 17.3 mph 21.9 mph N/A   Clear
4:36 AM 1.4 °F -18.2 °F -2.2 °F 85% 29.50 in 10.0 mi ENE 16.1 mph 26.5 mph N/A   Clear
4:56 AM 1.4 °F -18.8 °F -18.4 °F 39% 29.50 in 10.0 mi ENE 17.3 mph 23.0 mph N/A   Clear
5:16 AM 1.4 °F -18.8 °F -11.2 °F 56% 29.49 in 10.0 mi ENE 17.3 mph 23.0 mph N/A   Clear
5:36 AM 1.4 °F -21.0 °F -13.0 °F 51% 29.48 in 10.0 mi NE 21.9 mph 31.1 mph N/A   Clear
5:56 AM 1.4 °F -21.9 °F -25.6 °F 27% 29.48 in 10.0 mi ENE 24.2 mph 31.1 mph N/A   Clear
6:16 AM 1.4 °F -21.9 °F -25.6 °F 27% 29.48 in 10.0 mi ENE 24.2 mph 35.7 mph N/A   Clear
6:36 AM 1.4 °F -15.3 °F -18.4 °F 39% 29.49 in 10.0 mi East 11.5 mph - N/A   Clear
6:56 AM 1.4 °F -19.9 °F -22.0 °F 33% 29.48 in 10.0 mi NE 19.6 mph 25.3 mph N/A   Clear
7:16 AM 1.4 °F -16.9 °F -20.2 °F 36% 29.48 in 10.0 mi East 13.8 mph 18.4 mph N/A   Clear
7:36 AM -0.4 °F -20.5 °F -23.8 °F 32% 29.48 in 10.0 mi East 16.1 mph - N/A   Clear
7:56 AM 1.4 °F -13.5 °F -23.8 °F 30% 29.49 in 10.0 mi NE 9.2 mph - N/A   Clear
8:16 AM -0.4 °F -8.3 °F -25.6 °F 30% 29.49 in 10.0 mi SSE 3.5 mph - N/A   Clear
8:36 AM 1.4 °F -14.5 °F -22.0 °F 33% 29.49 in 10.0 mi East 10.4 mph - N/A   Clear
8:56 AM -0.4 °F -21.7 °F -22.0 °F 36% 29.48 in 10.0 mi ENE 18.4 mph 24.2 mph N/A   Clear
9:16 AM -0.4 °F -21.7 °F -18.4 °F 43% 29.46 in 10.0 mi NE 18.4 mph 23.0 mph N/A   Clear
9:36 AM 1.4 °F -16.9 °F -18.4 °F 39% 29.47 in 10.0 mi ENE 13.8 mph 23.0 mph N/A   Clear
9:56 AM 1.4 °F -21.4 °F -16.6 °F 43% 29.47 in 10.0 mi NE 23.0 mph 27.6 mph N/A   Clear
10:16 AM -2.2 °F -18.0 °F -16.6 °F 50% 29.48 in 10.0 mi North 9.2 mph - N/A   Clear
10:36 AM -2.2 °F -15.6 °F -18.4 °F 46% 29.48 in 10.0 mi NNE 6.9 mph - N/A   Clear
10:56 AM -0.4 °F -14.7 °F -11.2 °F 60% 29.48 in 10.0 mi East 8.1 mph - N/A   Clear
11:16 AM 1.4 °F -15.3 °F -25.6 °F 27% 29.48 in 10.0 mi ENE 11.5 mph - N/A   Clear
11:36 AM 1.4 °F -16.9 °F -20.2 °F 36% 29.47 in 10.0 mi ENE 13.8 mph - N/A   Clear
11:56 AM 1.4 °F -18.2 °F -23.8 °F 30% 29.48 in 10.0 mi NE 16.1 mph - N/A   Clear
12:16 PM 1.4 °F -19.4 °F -23.8 °F 30% 29.48 in 10.0 mi ENE 18.4 mph - N/A   Clear
12:36 PM 1.4 °F -18.2 °F -23.8 °F 30% 29.49 in 10.0 mi East 16.1 mph - N/A   Clear
12:56 PM 1.4 °F -18.8 °F -25.6 °F 27% 29.49 in 10.0 mi East 17.3 mph 21.9 mph N/A   Clear
1:16 PM 1.4 °F -18.8 °F -23.8 °F 30% 29.48 in 10.0 mi ENE 17.3 mph 25.3 mph N/A   Clear
1:36 PM 1.4 °F -20.5 °F -20.2 °F 36% 29.48 in 10.0 mi ENE 20.7 mph - N/A   Clear
1:56 PM 1.4 °F -19.9 °F -18.4 °F 39% 29.48 in 10.0 mi ENE 19.6 mph - N/A   Clear
2:16 PM 1.4 °F -18.2 °F -16.6 °F 43% 29.48 in 10.0 mi ENE 16.1 mph 23.0 mph N/A   Clear
2:36 PM 1.4 °F -16.9 °F -16.6 °F 43% 29.48 in 10.0 mi ENE 13.8 mph 20.7 mph N/A   Clear
2:56 PM 1.4 °F -16.1 °F -16.6 °F 43% 29.48 in 10.0 mi ENE 12.7 mph 21.9 mph N/A   Clear
3:16 PM 1.4 °F -18.8 °F -14.8 °F 47% 29.48 in 10.0 mi ENE 17.3 mph - N/A   Clear
3:36 PM 3.2 °F -15.9 °F -14.8 °F 43% 29.48 in 10.0 mi NE 16.1 mph - N/A   Clear
3:56 PM 3.2 °F -15.3 °F -14.8 °F 43% 29.49 in 10.0 mi NE 15.0 mph 26.5 mph N/A   Clear
4:16 PM 1.4 °F -13.5 °F -16.6 °F 43% 29.49 in 10.0 mi NE 9.2 mph - N/A   Clear
4:36 PM 1.4 °F -8.3 °F -14.8 °F 47% 29.48 in 10.0 mi NE 4.6 mph - N/A   Clear
4:56 PM 1.4 °F -18.8 °F -16.6 °F 43% 29.48 in 10.0 mi ENE 17.3 mph 20.7 mph N/A   Clear
5:16 PM 1.4 °F -20.5 °F -14.8 °F 47% 29.48 in 10.0 mi NE 20.7 mph 27.6 mph N/A   Clear
5:36 PM 1.4 °F -18.2 °F -18.4 °F 39% 29.49 in 10.0 mi North 16.1 mph - N/A   Clear
5:56 PM 1.4 °F -13.5 °F -14.8 °F 47% 29.49 in 10.0 mi NE 9.2 mph - N/A   Clear
6:16 PM -0.4 °F -16.7 °F -18.4 °F 43% 29.49 in 10.0 mi NE 10.4 mph 17.3 mph N/A   Clear
6:36 PM -0.4 °F -22.3 °F -13.0 °F 55% 29.48 in 10.0 mi NE 19.6 mph 24.2 mph N/A   Clear
6:56 PM -0.4 °F -19.2 °F -20.2 °F 39% 29.50 in 10.0 mi NNE 13.8 mph 25.3 mph N/A   Clear
7:16 PM -0.4 °F -14.7 °F -11.2 °F 60% 29.50 in 10.0 mi NNE 8.1 mph - N/A   Clear
7:36 PM -0.4 °F -22.3 °F -22.0 °F 36% 29.50 in 10.0 mi NE 19.6 mph - N/A   Clear
7:56 PM -2.2 °F -19.9 °F -18.4 °F 46% 29.51 in 10.0 mi NNE 11.5 mph - N/A   Clear
8:16 PM -0.4 °F -14.7 °F -11.2 °F 60% 29.52 in 10.0 mi North 8.1 mph - N/A   Clear
8:36 PM -0.4 °F -10.4 °F -22.0 °F 36% 29.52 in 10.0 mi North 4.6 mph - N/A   Clear
8:56 PM -0.4 °F -14.7 °F -11.2 °F 60% 29.52 in 10.0 mi NE 8.1 mph - N/A   Clear
9:16 PM -0.4 °F -12.0 °F -23.8 °F 32% 29.52 in 10.0 mi NNE 5.8 mph - N/A   Mostly Cloudy
9:56 PM -2.2 °F -16.8 °F -27.4 °F 29% 29.54 in 10.0 mi NNW 8.1 mph - N/A   Overcast
10:16 PM -5.8 °F -18.4 °F -18.4 °F 55% 29.54 in 10.0 mi NNW 5.8 mph - N/A   Mostly Cloudy
10:36 PM -4.0 °F -14.6 °F -20.2 °F 46% 29.55 in 10.0 mi NW 4.6 mph - N/A   Mostly Cloudy
10:56 PM -5.8 °F -18.4 °F -14.8 °F 65% 29.54 in 10.0 mi NNW 5.8 mph - N/A   Mostly Cloudy
11:16 PM -4.0 °F -12.4 °F -23.8 °F 38% 29.55 in 10.0 mi WNW 3.5 mph - N/A   Partly Cloudy
11:36 PM -7.6 °F -22.1 °F -18.4 °F 59% 29.56 in 10.0 mi WNW 6.9 mph - N/A   Mostly Cloudy
11:56 PM -7.6 °F -23.4 °F -25.6 °F 41% 29.56 in 10.0 mi NW 8.1 mph - N/A   Overcast